Location: Cambridge (historical)
(38.6883°N, 119.0140°W)
Time: 17:21:54
(UTC+00:00)

ALOS - Pass Details

Date: 29 October 2020
Orbit: 683 x 685 km, 97.9° (Epoch: 23 November)

Event Time Altitude Azimuth Distance (km) Brightness Sun altitude
Rises 12:20:08 0° 15° (NNE) 3,054 5.8 -24.0°
Reaches altitude 10° 12:22:24 10° 18° (NNE) 2,135 5.0 -23.5°
Maximum altitude 12:27:03 67° 101° (E) 742 2.6 -22.6°
Drops below altitude 10° 12:31:40 10° 184° (S) 2,120 4.7 -21.7°
Sets 12:33:55 0° 187° (S) 3,031 5.5 -21.3°
